EJU709V LFMN-LFPG

Flight info

Callsign EJU709V
Flight time 1h 14m
Altitude 34000
Route OKTET DCT GIPNO DCT LOGNI DCT MOKIP DCT ARFOZ DCT TINIL
Aircraft A320/M-SDE3FGHIRWY/LB1

Departure

Time 2026-05-05 11:56
Airport Nice-Côte d'Azur Airport (LFMN)

Arrival

Time 2026-05-05 13:10
Airport Charles de Gaulle International Airport (LFPG)
Time Latitude Longitude Altitude Speed Heading
2026-05-05 11:33 43.65994 7.20701 22 ft 0 kts 262°
2026-05-05 11:47 43.65995 7.20711 22 ft 4 kts 262°
2026-05-05 11:48 43.66004 7.20783 24 ft 4 kts 249°
2026-05-05 11:48 43.66017 7.20810 26 ft 4 kts 200°
2026-05-05 11:48 43.66035 7.20813 25 ft 0 kts 170°
2026-05-05 11:51 43.66017 7.20818 27 ft 7 kts 170°
2026-05-05 11:51 43.65946 7.20833 22 ft 13 kts 171°
2026-05-05 11:51 43.65840 7.20857 22 ft 17 kts 171°
2026-05-05 11:51 43.65714 7.20886 23 ft 19 kts 170°
2026-05-05 11:52 43.65576 7.20919 23 ft 21 kts 171°
2026-05-05 11:52 43.65425 7.20951 23 ft 20 kts 171°
2026-05-05 11:52 43.65313 7.20907 22 ft 18 kts 225°
2026-05-05 11:52 43.65229 7.20792 22 ft 16 kts 225°
2026-05-05 11:53 43.65154 7.20687 22 ft 15 kts 225°
2026-05-05 11:53 43.65082 7.20588 22 ft 14 kts 225°
2026-05-05 11:53 43.65004 7.20480 22 ft 17 kts 225°
2026-05-05 11:53 43.64922 7.20367 22 ft 16 kts 225°
2026-05-05 11:54 43.64852 7.20270 22 ft 10 kts 225°
2026-05-05 11:54 43.64807 7.20209 22 ft 9 kts 222°
2026-05-05 11:54 43.64768 7.20185 22 ft 4 kts 186°
2026-05-05 11:54 43.64738 7.20194 24 ft 8 kts 159°
2026-05-05 11:55 43.64702 7.20279 22 ft 15 kts 74°
2026-05-05 11:55 43.64802 7.20427 22 ft 42 kts 45°
2026-05-05 11:55 43.65190 7.20961 23 ft 112 kts 45°
2026-05-05 11:55 43.65871 7.21896 92 ft 157 kts 47°
2026-05-05 11:56 43.66583 7.22997 752 ft 155 kts 65°
2026-05-05 11:56 43.66624 7.24440 1427 ft 157 kts 111°
2026-05-05 11:56 43.65950 7.25629 2131 ft 159 kts 135°
2026-05-05 11:56 43.65172 7.26713 2808 ft 159 kts 136°
2026-05-05 11:57 43.64390 7.27805 3394 ft 166 kts 136°
2026-05-05 11:57 43.63523 7.29019 3726 ft 189 kts 136°
2026-05-05 11:57 43.62560 7.30375 4025 ft 213 kts 136°
2026-05-05 11:57 43.61366 7.31630 4617 ft 220 kts 164°
2026-05-05 11:58 43.59873 7.31654 5333 ft 218 kts 204°
2026-05-05 11:58 43.58546 7.30639 6139 ft 219 kts 213°
2026-05-05 11:58 43.57249 7.29527 6988 ft 220 kts 214°
2026-05-05 11:58 43.55952 7.28394 7798 ft 221 kts 218°
2026-05-05 11:59 43.54971 7.26786 8586 ft 222 kts 247°
2026-05-05 11:59 43.54736 7.24684 9394 ft 227 kts 276°
2026-05-05 11:59 43.55339 7.22681 10159 ft 236 kts 303°
2026-05-05 11:59 43.56357 7.20885 10912 ft 240 kts 304°
2026-05-05 12:00 43.57400 7.19071 11663 ft 243 kts 303°
2026-05-05 12:00 43.58458 7.17228 12403 ft 247 kts 302°
2026-05-05 12:00 43.59525 7.15361 13148 ft 250 kts 302°
2026-05-05 12:00 43.60613 7.13456 13880 ft 254 kts 303°
2026-05-05 12:01 43.61907 7.11703 14386 ft 273 kts 313°
2026-05-05 12:01 43.63426 7.09943 14605 ft 297 kts 314°
2026-05-05 12:01 43.65074 7.08051 14797 ft 320 kts 315°
2026-05-05 12:01 43.66854 7.06019 14941 ft 344 kts 315°
2026-05-05 12:02 43.68761 7.03849 15138 ft 364 kts 315°
2026-05-05 12:02 43.70713 7.01640 15655 ft 371 kts 316°
2026-05-05 12:02 43.72728 6.99363 16307 ft 376 kts 315°
2026-05-05 12:02 43.74765 6.97056 16949 ft 381 kts 315°
2026-05-05 12:03 43.76824 6.94712 17573 ft 385 kts 315°
2026-05-05 12:03 43.78893 6.92343 18227 ft 388 kts 314°
2026-05-05 12:03 43.80979 6.89944 18796 ft 392 kts 314°
2026-05-05 12:03 43.83078 6.87525 19428 ft 394 kts 314°
2026-05-05 12:04 43.85193 6.85090 20054 ft 396 kts 314°
2026-05-05 12:04 43.87311 6.82651 20715 ft 397 kts 314°
2026-05-05 12:04 43.89442 6.80199 21347 ft 398 kts 314°
2026-05-05 12:04 43.91553 6.77778 21951 ft 401 kts 315°
2026-05-05 12:05 43.93904 6.75628 22526 ft 411 kts 325°
2026-05-05 12:05 43.96576 6.74055 23066 ft 423 kts 336°
2026-05-05 12:05 43.99458 6.73054 23591 ft 430 kts 340°
2026-05-05 12:05 44.02383 6.72117 23953 ft 433 kts 340°
2026-05-05 12:06 44.05324 6.71166 24431 ft 434 kts 340°
2026-05-05 12:06 44.07277 6.70527 24705 ft 436 kts 340°
2026-05-05 12:06 44.10234 6.69553 25086 ft 439 kts 340°
2026-05-05 12:06 44.13206 6.68573 25421 ft 441 kts 340°
2026-05-05 12:07 44.17179 6.67266 25853 ft 445 kts 339°
2026-05-05 12:07 44.20204 6.66275 26251 ft 448 kts 339°
2026-05-05 12:07 44.23251 6.65277 26664 ft 451 kts 339°
2026-05-05 12:07 44.26313 6.64272 27050 ft 454 kts 339°
2026-05-05 12:08 44.28348 6.63602 27300 ft 456 kts 339°
2026-05-05 12:08 44.31447 6.62583 27714 ft 458 kts 339°
2026-05-05 12:08 44.34558 6.61558 28072 ft 461 kts 339°
2026-05-05 12:08 44.37683 6.60525 28371 ft 463 kts 338°
2026-05-05 12:09 44.40828 6.59482 28698 ft 466 kts 338°
2026-05-05 12:09 44.45014 6.58079 29124 ft 468 kts 336°
2026-05-05 12:09 44.47103 6.57155 29342 ft 464 kts 330°
2026-05-05 12:09 44.49987 6.55349 29651 ft 456 kts 322°
2026-05-05 12:10 44.52659 6.53033 29969 ft 450 kts 316°
2026-05-05 12:10 44.55254 6.50558 30240 ft 452 kts 316°
2026-05-05 12:10 44.57863 6.48073 30477 ft 454 kts 316°
2026-05-05 12:10 44.60488 6.45576 30734 ft 456 kts 316°
2026-05-05 12:11 44.63112 6.43084 30999 ft 456 kts 316°
2026-05-05 12:11 44.65741 6.40587 31228 ft 456 kts 316°
2026-05-05 12:11 44.68368 6.38085 31523 ft 456 kts 316°
2026-05-05 12:11 44.70995 6.35582 31848 ft 456 kts 316°
2026-05-05 12:12 44.73581 6.33110 32142 ft 456 kts 316°
2026-05-05 12:12 44.76204 6.30596 32434 ft 456 kts 316°
2026-05-05 12:12 44.78818 6.28087 32760 ft 455 kts 316°
2026-05-05 12:12 44.81436 6.25575 33064 ft 455 kts 316°
2026-05-05 12:13 44.84054 6.23065 33325 ft 456 kts 316°
2026-05-05 12:13 44.86677 6.20550 33656 ft 455 kts 316°
2026-05-05 12:13 44.89299 6.18036 33887 ft 456 kts 316°
2026-05-05 12:13 44.91917 6.15520 33949 ft 455 kts 316°
2026-05-05 12:14 44.97101 6.10527 33973 ft 453 kts 316°
2026-05-05 12:14 45.02295 6.05505 33933 ft 452 kts 316°
2026-05-05 12:15 45.07483 6.00479 33936 ft 453 kts 317°
2026-05-05 12:15 45.12675 5.95434 33929 ft 453 kts 317°
2026-05-05 12:16 45.17874 5.90372 33929 ft 453 kts 317°
2026-05-05 12:16 45.23038 5.85346 33918 ft 453 kts 317°
2026-05-05 12:17 45.28228 5.80271 33926 ft 453 kts 317°
2026-05-05 12:17 45.33418 5.75168 33939 ft 454 kts 318°
2026-05-05 12:18 45.38617 5.70056 33924 ft 455 kts 318°
2026-05-05 12:18 45.43791 5.64965 33926 ft 455 kts 318°
2026-05-05 12:19 45.48953 5.59885 33906 ft 456 kts 319°
2026-05-05 12:19 45.54167 5.54734 33903 ft 456 kts 319°
2026-05-05 12:20 45.59858 5.50469 33907 ft 466 kts 330°
2026-05-05 12:20 45.65736 5.46773 33943 ft 467 kts 330°
2026-05-05 12:21 45.71630 5.43042 33920 ft 467 kts 330°
2026-05-05 12:21 45.77570 5.39269 33904 ft 467 kts 330°
2026-05-05 12:22 45.83502 5.35490 33895 ft 467 kts 330°
2026-05-05 12:22 45.89438 5.31704 33889 ft 467 kts 331°
2026-05-05 12:23 45.95340 5.27931 33888 ft 468 kts 331°
2026-05-05 12:23 46.01098 5.24243 33892 ft 468 kts 331°
2026-05-05 12:24 46.07050 5.20420 33901 ft 469 kts 331°
2026-05-05 12:24 46.13008 5.16594 33917 ft 469 kts 332°
2026-05-05 12:25 46.18926 5.12777 33907 ft 469 kts 332°
2026-05-05 12:25 46.25098 5.09807 33890 ft 477 kts 347°
2026-05-05 12:26 46.31756 5.09315 33896 ft 480 kts 358°
2026-05-05 12:26 46.38434 5.09355 33884 ft 481 kts 358°
2026-05-05 12:27 46.45137 5.09369 33891 ft 481 kts 358°
2026-05-05 12:27 46.51787 5.09386 33892 ft 481 kts 359°
2026-05-05 12:28 46.58483 5.09418 33895 ft 481 kts 359°
2026-05-05 12:28 46.65174 5.09444 33895 ft 481 kts 359°
2026-05-05 12:29 46.71866 5.09474 33897 ft 481 kts 359°
2026-05-05 12:29 46.78550 5.09505 33897 ft 480 kts 359°
2026-05-05 12:30 46.85190 5.09530 33882 ft 480 kts 358°
2026-05-05 12:30 46.91862 5.09543 33882 ft 480 kts 359°
2026-05-05 12:31 46.98536 5.09582 33877 ft 480 kts 359°
2026-05-05 12:31 47.05213 5.09616 33881 ft 479 kts 359°
2026-05-05 12:32 47.11837 5.09639 33871 ft 479 kts 359°
2026-05-05 12:32 47.18490 5.09673 33874 ft 478 kts 359°
2026-05-05 12:33 47.25139 5.09719 33872 ft 478 kts 359°
2026-05-05 12:33 47.31784 5.09748 33871 ft 477 kts 360°
2026-05-05 12:34 47.35148 5.09759 33617 ft 489 kts
2026-05-05 12:34 47.38573 5.09771 33339 ft 496 kts
2026-05-05 12:34 47.42029 5.09784 33086 ft 498 kts
2026-05-05 12:34 47.45454 5.09800 32817 ft 498 kts
2026-05-05 12:35 47.48908 5.09817 32541 ft 496 kts
2026-05-05 12:35 47.52350 5.09739 32276 ft 493 kts 356°
2026-05-05 12:35 47.55736 5.08978 32014 ft 491 kts 346°
2026-05-05 12:35 47.58985 5.07474 31753 ft 489 kts 337°
2026-05-05 12:36 47.62037 5.05288 31375 ft 486 kts 329°
2026-05-05 12:36 47.64845 5.02476 30221 ft 489 kts 319°
2026-05-05 12:36 47.67401 4.99200 29540 ft 482 kts 318°
2026-05-05 12:36 47.69896 4.96011 28832 ft 476 kts 318°
2026-05-05 12:37 47.72399 4.92853 28170 ft 469 kts 318°
2026-05-05 12:37 47.74881 4.89745 27568 ft 463 kts 319°
2026-05-05 12:37 47.77323 4.86689 27376 ft 458 kts 318°
2026-05-05 12:37 47.79752 4.83635 27065 ft 455 kts 318°
2026-05-05 12:38 47.82156 4.80593 26765 ft 452 kts 318°
2026-05-05 12:38 47.84540 4.77563 26463 ft 450 kts 318°
2026-05-05 12:38 47.86915 4.74533 26164 ft 448 kts 318°
2026-05-05 12:38 47.89267 4.71524 25847 ft 446 kts 318°
2026-05-05 12:39 47.91582 4.68557 25564 ft 443 kts 318°
2026-05-05 12:39 47.93915 4.65570 25282 ft 440 kts 318°
2026-05-05 12:39 47.96221 4.62617 24974 ft 436 kts 319°
2026-05-05 12:39 47.98516 4.59681 24691 ft 433 kts 319°
2026-05-05 12:40 48.00798 4.56761 24393 ft 431 kts 319°
2026-05-05 12:40 48.03069 4.53850 24103 ft 428 kts 319°
2026-05-05 12:40 48.05326 4.50953 23813 ft 426 kts 319°
2026-05-05 12:40 48.07571 4.48065 23530 ft 424 kts 319°
2026-05-05 12:41 48.09797 4.45195 23219 ft 422 kts 318°
2026-05-05 12:41 48.11981 4.42369 22938 ft 420 kts 318°
2026-05-05 12:41 48.14189 4.39507 22648 ft 419 kts 318°
2026-05-05 12:41 48.16387 4.36655 22372 ft 417 kts 318°
2026-05-05 12:42 48.18569 4.33829 22091 ft 414 kts 318°
2026-05-05 12:42 48.20747 4.31013 21812 ft 412 kts 318°
2026-05-05 12:42 48.22912 4.28213 21538 ft 411 kts 318°
2026-05-05 12:42 48.25075 4.25408 21251 ft 409 kts 318°
2026-05-05 12:43 48.27066 4.22380 20978 ft 406 kts 309°
2026-05-05 12:43 48.28831 4.19158 20713 ft 404 kts 308°
2026-05-05 12:43 48.30615 4.15899 20441 ft 403 kts 308°
2026-05-05 12:43 48.32386 4.12663 20169 ft 401 kts 308°
2026-05-05 12:44 48.34158 4.09428 19882 ft 400 kts 308°
2026-05-05 12:44 48.35922 4.06208 19572 ft 398 kts 308°
2026-05-05 12:44 48.37676 4.03011 19200 ft 395 kts 308°
2026-05-05 12:44 48.39421 3.99831 18839 ft 393 kts 308°
2026-05-05 12:45 48.41157 3.96659 18469 ft 391 kts 308°
2026-05-05 12:45 48.42877 3.93508 18127 ft 389 kts 308°
2026-05-05 12:45 48.44589 3.90363 17735 ft 386 kts 308°
2026-05-05 12:45 48.46281 3.87245 17386 ft 384 kts 308°
2026-05-05 12:46 48.47965 3.84138 17046 ft 381 kts 308°
2026-05-05 12:46 48.49615 3.81095 16705 ft 380 kts 308°
2026-05-05 12:46 48.51283 3.78017 16357 ft 378 kts 308°
2026-05-05 12:46 48.52942 3.74954 16027 ft 376 kts 308°
2026-05-05 12:47 48.54494 3.71798 15713 ft 373 kts 301°
2026-05-05 12:47 48.55896 3.68516 15561 ft 372 kts 301°
2026-05-05 12:47 48.57305 3.65242 15363 ft 371 kts 301°
2026-05-05 12:47 48.58714 3.61970 15173 ft 370 kts 301°
2026-05-05 12:48 48.60114 3.58720 14975 ft 370 kts 302°
2026-05-05 12:48 48.61523 3.55440 14788 ft 373 kts 302°
2026-05-05 12:48 48.62933 3.52152 14545 ft 372 kts 302°
2026-05-05 12:48 48.64340 3.48874 14306 ft 371 kts 302°
2026-05-05 12:49 48.65741 3.45606 14080 ft 370 kts 303°
2026-05-05 12:49 48.67132 3.42353 13845 ft 368 kts 303°
2026-05-05 12:49 48.68501 3.39143 13614 ft 366 kts 303°
2026-05-05 12:49 48.69873 3.35915 13370 ft 365 kts 303°
2026-05-05 12:50 48.71246 3.32683 13143 ft 363 kts 303°
2026-05-05 12:50 48.72610 3.29474 12906 ft 361 kts 303°
2026-05-05 12:50 48.73964 3.26283 12691 ft 360 kts 303°
2026-05-05 12:50 48.75318 3.23087 12455 ft 359 kts 303°
2026-05-05 12:51 48.76660 3.19913 12226 ft 357 kts 303°
2026-05-05 12:51 48.77999 3.16747 12003 ft 356 kts 303°
2026-05-05 12:51 48.79334 3.13585 11782 ft 355 kts 303°
2026-05-05 12:51 48.80658 3.10441 11560 ft 354 kts 303°
2026-05-05 12:52 48.81979 3.07299 11338 ft 352 kts 303°
2026-05-05 12:52 48.83274 3.04213 11111 ft 351 kts 303°
2026-05-05 12:52 48.84640 3.01152 10922 ft 348 kts 310°
2026-05-05 12:52 48.86247 2.98426 10825 ft 346 kts 314°
2026-05-05 12:53 48.87841 2.95799 10848 ft 343 kts 314°
2026-05-05 12:53 48.89459 2.93119 10845 ft 323 kts 314°
2026-05-05 12:53 48.90914 2.90696 10847 ft 307 kts 314°
2026-05-05 12:53 48.92245 2.88239 10848 ft 295 kts 304°
2026-05-05 12:54 48.93495 2.82657 10846 ft 267 kts 274°
2026-05-05 12:54 48.93459 2.79863 10659 ft 267 kts 266°
2026-05-05 12:54 48.93309 2.76875 9929 ft 295 kts 266°
2026-05-05 12:55 48.93140 2.73705 9295 ft 303 kts 266°
2026-05-05 12:55 48.92967 2.70537 9045 ft 299 kts 266°
2026-05-05 12:55 48.92797 2.67391 8853 ft 297 kts 266°
2026-05-05 12:55 48.92631 2.64258 8662 ft 297 kts 266°
2026-05-05 12:56 48.92466 2.61169 8487 ft 288 kts 266°
2026-05-05 12:56 48.92305 2.58208 8346 ft 276 kts 266°
2026-05-05 12:56 48.92146 2.55333 8131 ft 269 kts 266°
2026-05-05 12:56 48.91991 2.52553 8017 ft 260 kts 266°
2026-05-05 12:57 48.91839 2.49797 7891 ft 263 kts 266°
2026-05-05 12:57 48.91686 2.47026 7743 ft 261 kts 266°
2026-05-05 12:57 48.91537 2.44305 7576 ft 259 kts 266°
2026-05-05 12:57 48.91385 2.41557 7413 ft 260 kts 266°
2026-05-05 12:58 48.91235 2.38837 7246 ft 257 kts 266°
2026-05-05 12:58 48.91086 2.36174 7084 ft 256 kts 266°
2026-05-05 12:58 48.90934 2.33474 6919 ft 257 kts 266°
2026-05-05 12:58 48.90785 2.30819 6754 ft 256 kts 266°
2026-05-05 12:59 48.90633 2.28126 6581 ft 257 kts 266°
2026-05-05 12:59 48.90480 2.25428 6428 ft 255 kts 266°
2026-05-05 12:59 48.90325 2.22737 6241 ft 256 kts 266°
2026-05-05 13:00 48.90015 2.17382 5976 ft 253 kts 266°
2026-05-05 13:00 48.89871 2.14912 5878 ft 252 kts 266°
2026-05-05 13:01 48.90670 2.07585 5567 ft 232 kts 322°
2026-05-05 13:01 48.92037 2.06569 5464 ft 216 kts 356°
2026-05-05 13:01 48.93474 2.06902 5383 ft 209 kts 31°
2026-05-05 13:01 48.94503 2.08396 5286 ft 206 kts 57°
2026-05-05 13:02 48.95231 2.10277 5185 ft 207 kts 61°
2026-05-05 13:02 48.95869 2.12097 5096 ft 207 kts 62°
2026-05-05 13:02 48.96537 2.14051 5006 ft 208 kts 62°
2026-05-05 13:02 48.96998 2.16110 5006 ft 205 kts 79°
2026-05-05 13:03 48.97159 2.18196 4999 ft 192 kts 83°
2026-05-05 13:03 48.97273 2.20187 5023 ft 178 kts 84°
2026-05-05 13:03 48.97375 2.21993 4853 ft 170 kts 84°
2026-05-05 13:03 48.97477 2.23781 4633 ft 169 kts 83°
2026-05-05 13:04 48.97578 2.25567 4403 ft 171 kts 83°
2026-05-05 13:04 48.97680 2.27367 4171 ft 170 kts 82°
2026-05-05 13:04 48.97782 2.29173 3936 ft 171 kts 83°
2026-05-05 13:04 48.97878 2.30893 3714 ft 167 kts 82°
2026-05-05 13:05 48.97974 2.32610 3486 ft 156 kts 82°
2026-05-05 13:05 48.98061 2.34184 3289 ft 144 kts 81°
2026-05-05 13:05 48.98145 2.35670 3114 ft 140 kts 80°
2026-05-05 13:05 48.98227 2.37145 2934 ft 139 kts 81°
2026-05-05 13:06 48.98308 2.38596 2744 ft 137 kts 80°
2026-05-05 13:06 48.98388 2.40044 2556 ft 137 kts 81°
2026-05-05 13:06 48.98468 2.41488 2369 ft 136 kts 81°
2026-05-05 13:06 48.98547 2.42921 2181 ft 136 kts 81°
2026-05-05 13:07 48.98625 2.44337 2001 ft 136 kts 80°
2026-05-05 13:07 48.98703 2.45776 1812 ft 137 kts 80°
2026-05-05 13:07 48.98786 2.47230 1597 ft 137 kts 79°
2026-05-05 13:07 48.98864 2.48669 1425 ft 136 kts 79°
2026-05-05 13:08 48.98940 2.50077 1287 ft 138 kts 81°
2026-05-05 13:08 48.99022 2.51560 1057 ft 143 kts 81°
2026-05-05 13:08 48.99104 2.53042 824 ft 142 kts 81°
2026-05-05 13:08 48.99192 2.54510 628 ft 139 kts 82°
2026-05-05 13:09 48.99266 2.56011 471 ft 145 kts 81°
2026-05-05 13:09 48.99341 2.57516 362 ft 131 kts 82°
2026-05-05 13:09 48.99403 2.58641 352 ft 82 kts 86°
2026-05-05 13:09 48.99448 2.59379 352 ft 57 kts 85°
2026-05-05 13:10 48.99479 2.59824 356 ft 30 kts 69°
2026-05-05 13:10 48.99582 2.59973 359 ft 11 kts 14°
2026-05-05 13:10 48.99646 2.59978 359 ft 10 kts 357°
2026-05-05 13:10 48.99722 2.59971 357 ft 12 kts 356°
2026-05-05 13:11 48.99807 2.59962 359 ft 12 kts 356°
2026-05-05 13:11 48.99893 2.59990 356 ft 14 kts 42°
2026-05-05 13:11 48.99963 2.60077 354 ft 9 kts
2026-05-05 13:11 49.00019 2.60031 357 ft 10 kts 323°
2026-05-05 13:12 49.00087 2.59972 358 ft 12 kts 320°
2026-05-05 13:12 49.00096 2.59854 354 ft 11 kts 261°
2026-05-05 13:12 49.00088 2.59752 363 ft 9 kts 266°
2026-05-05 13:12 49.00094 2.59665 360 ft 8 kts 300°
2026-05-05 13:13 49.00147 2.59631 356 ft 9 kts 358°
2026-05-05 13:13 49.00213 2.59625 354 ft 10 kts 356°
2026-05-05 13:13 49.00290 2.59617 354 ft 12 kts 355°
2026-05-05 13:13 49.00381 2.59607 354 ft 14 kts 355°
2026-05-05 13:14 49.00484 2.59593 357 ft 16 kts 355°
2026-05-05 13:14 49.00601 2.59577 354 ft 18 kts 355°
2026-05-05 13:14 49.00732 2.59561 354 ft 20 kts 355°
2026-05-05 13:14 49.00864 2.59545 354 ft 17 kts 355°
2026-05-05 13:15 49.00970 2.59529 354 ft 14 kts 345°
2026-05-05 13:15 49.01000 2.59396 354 ft 15 kts 266°
2026-05-05 13:15 49.00992 2.59243 354 ft 14 kts 265°
2026-05-05 13:15 49.00984 2.59106 354 ft 13 kts 262°
2026-05-05 13:16 49.00962 2.58984 359 ft 11 kts 253°
2026-05-05 13:16 49.00947 2.58829 360 ft 18 kts 265°
2026-05-05 13:16 49.00937 2.58638 359 ft 18 kts 265°
2026-05-05 13:16 49.00928 2.58468 359 ft 11 kts 265°
2026-05-05 13:17 49.00925 2.58413 358 ft 1 kts 265°
2026-05-05 13:17 49.00925 2.58409 358 ft 0 kts 265°
2026-05-05 13:19 49.00922 2.58359 362 ft 11 kts 265°
2026-05-05 13:19 49.00915 2.58231 355 ft 10 kts 265°
2026-05-05 13:19 49.00914 2.58204 358 ft 0 kts 265°
2026-05-05 13:20 49.00912 2.58160 361 ft 11 kts 265°
2026-05-05 13:20 49.00905 2.58040 354 ft 11 kts 265°
2026-05-05 13:21 49.00899 2.57924 354 ft 13 kts 265°
2026-05-05 13:21 49.00890 2.57761 355 ft 17 kts 265°
2026-05-05 13:21 49.00880 2.57578 361 ft 18 kts 265°
2026-05-05 13:21 49.00870 2.57387 355 ft 19 kts 265°
2026-05-05 13:22 49.00858 2.57180 355 ft 21 kts 265°
2026-05-05 13:22 49.00847 2.56949 359 ft 23 kts 266°
2026-05-05 13:22 49.00835 2.56697 355 ft 25 kts 266°
2026-05-05 13:22 49.00821 2.56505 358 ft 11 kts 262°
2026-05-05 13:23 49.00771 2.56447 355 ft 9 kts 184°
2026-05-05 13:23 49.00711 2.56454 355 ft 8 kts 175°
2026-05-05 13:23 49.00659 2.56446 355 ft 7 kts 197°
2026-05-05 13:23 49.00629 2.56401 357 ft 6 kts 242°
2026-05-05 13:24 49.00599 2.56370 354 ft 5 kts 197°
2026-05-05 13:24 49.00570 2.56357 359 ft 4 kts 195°
2026-05-05 13:24 49.00547 2.56348 354 ft 2 kts 195°
2026-05-05 13:24 49.00540 2.56345 354 ft 0 kts 195°